#timestamp,LO_Frequency,Hit,StdDev 
1626098415.1,286047000.0,N
1626098416.0,286047000.0,N
1626098435.8,286047000.7,N
1626098455.6,286046998.7,N
1626098475.5,286046998.6,N
1626098495.3,286047000.9,N
1626098515.2,286047000.1,N
1626098535.9,286047002.4,N
1626098555.7,286047002.5,N
1626098575.6,286046999.7,N
1626098595.4,286046999.9,N
1626098615.2,286047000.0,N
1626098635.1,286047002.8,N
1626098636.0,286047002.8,N
1626098655.8,286046999.8,N
1626098675.7,286047002.8,N
1626098695.5,286047000.1,N
1626098715.3,286046999.7,N
1626098735.2,286047002.7,N
1626098785.0,286047002.5,E
1626098795.9,286047000.6,N
1626098815.7,286046998.5,P
1626098835.5,286046998.6,N
1626098855.4,286046998.2,N
1626098875.2,286046998.6,N
1626098895.0,286046998.7,N
1626098896.0,286046998.7,N
1626098915.8,286046998.6,N
1626098935.6,286046998.8,N
1626098955.5,286046998.2,N
1626098975.3,286046998.1,N
1626098995.1,286046999.9,N
1626099015.9,286047000.6,N
1626099035.7,286046998.8,N
1626099055.5,286046998.3,N
1626099075.4,286046998.7,N
1626099095.2,286046998.9,N
1626099115.1,286047000.7,N
1626099116.0,286047000.7,N
1626099135.8,286046999.9,N
1626099155.6,286047000.9,N
1626099175.7,286047000.6,N
1626099195.6,286047000.8,N
1626099215.4,286047000.8,N
1626099235.3,286047000.5,N
1626099255.1,286047001.1,N
1626099256.0,286047001.1,N
1626099275.8,286047000.6,N
1626099295.7,286047000.3,N
1626099315.5,286047000.8,N
1626099335.3,286047000.2,N
1626099355.2,286047000.0,N
1626099375.0,286047002.7,N
1626099375.9,286047002.7,N
1626099395.8,286047001.9,N
1626099415.6,286047004.3,Y
1626099435.4,286047005.4,P
1626099455.3,286047005.3,N
1626099475.1,286047002.9,N
1626099495.8,286047003.1,N
1626099515.7,286047003.2,N
1626099535.5,286047005.1,N
1626099555.4,286047004.9,N
1626099575.2,286047005.1,N
1626099595.0,286047006.0,Y
1626099595.9,286047006.0,P
1626099615.8,286047000.5,N
1626099635.6,286047000.6,N
1626099655.5,286047000.6,N
1626099675.3,286047000.4,N
1626099695.1,286047000.7,N
1626099715.9,286046998.3,N
1626099735.7,286047000.5,N
1626099755.5,286046998.6,N
1626099775.4,286047001.2,N
1626099795.2,286046998.4,N
1626099815.1,286046999.3,N
1626099816.0,286046999.3,N
1626099835.8,286046998.8,N
1626099855.6,286046997.0,N
1626099875.5,286046999.5,N
1626099895.3,286046996.9,N
1626099915.1,286046999.2,N
1626099935.9,286046999.0,N
1626099955.7,286046998.5,N
1626099975.6,286046998.4,N
1626099995.4,286046998.3,N
1626100015.2,286046998.7,N
1626100035.1,286046999.0,N
1626100036.0,286046999.0,N
1626100055.8,286046998.1,N
1626100075.6,286046999.9,N
1626100095.5,286047002.0,N
1626100115.3,286047001.3,N
1626100135.1,286047001.9,N
1626100155.9,286047001.6,N
1626100175.7,286047001.7,N
1626100195.6,286047001.6,N
1626100215.4,286047002.5,N
1626100235.2,286047004.1,N
1626100255.1,286047004.2,N
1626100256.0,286047004.2,N
1626100275.8,286047004.3,N
1626100295.7,286047001.5,N
1626100315.5,286047002.1,N
1626100335.3,286047001.3,N
1626100355.2,286047002.0,N
1626100375.0,286047002.1,N
1626100375.9,286047002.1,N
1626100395.7,286047001.3,N
1626100415.6,286047001.8,N
1626100435.4,286047002.0,N
1626100455.3,286047002.6,N
1626100475.1,286047002.2,N
1626100495.8,286047002.7,N
1626100515.7,286047001.2,N
1626100535.5,286046997.0,N
1626100555.4,286046999.3,N
1626100575.2,286046998.3,N
1626100595.0,286046998.4,N
1626100595.9,286046998.4,N
1626100615.8,286046999.3,N
1626100635.6,286046997.1,N
1626100655.4,286046997.3,N
1626100675.3,286046996.7,N
1626100695.1,286046997.4,N
1626100715.9,286046997.5,N
1626100735.7,286046997.5,N
1626100755.5,286046995.4,N
1626100775.4,286046995.4,N
1626100795.2,286046995.4,N
1626100815.0,286046995.1,N
1626100815.9,286046995.1,N
1626100835.8,286046995.4,N
1626100855.6,286046996.3,N
1626100875.5,286046996.0,N
1626100895.3,286046995.6,N
1626100915.1,286046995.8,N
1626100935.9,286046995.9,N
1626100955.7,286046996.3,N
1626100975.5,286046995.8,N
1626100995.4,286046997.2,N
1626101015.2,286046997.7,N
1626101035.0,286046997.6,N
1626101035.9,286046997.6,N
1626101055.8,286046995.4,Y
1626101075.6,286046999.1,P
1626101095.5,286046996.9,N
1626101115.3,286046997.3,N
1626101135.1,286046996.8,Y
1626101155.9,286046998.1,P
1626101175.7,286047001.2,P
1626101195.6,286046998.4,N
1626101215.4,286046998.7,N
1626101235.2,286046998.6,N
1626101255.1,286046999.6,N
1626101256.0,286046999.6,N
1626101275.8,286046996.5,Y
1626101295.7,286047001.2,P
1626101315.5,286046998.8,N
1626101335.3,286046999.2,N
1626101355.2,286046997.7,N
1626101375.0,286046996.4,Y
1626101375.9,286046996.4,P
1626101395.8,286046997.6,N
1626101415.6,286046997.5,N
1626101435.4,286046998.1,N
1626101455.3,286047002.8,Y
1626101475.1,286047003.7,P
1626101495.8,286047005.3,N
1626101515.7,286047001.6,N
1626101535.5,286047000.4,N
1626101555.4,286046999.1,N
1626101575.2,286046995.2,N
1626101595.0,286046996.0,N
1626101595.9,286046996.0,N
1626101615.8,286046993.6,N
1626101635.6,286046993.8,N
1626101655.4,286046996.2,N
1626101675.3,286046996.1,N
1626101695.1,286046993.6,N
1626101715.9,286046991.7,N
1626101735.7,286046992.5,N
1626101755.5,286046991.7,N
1626101775.4,286046991.9,N
1626101795.2,286046993.5,N
1626101815.0,286046997.0,N
1626101815.9,286046997.0,N
1626101835.8,286046998.3,N
1626101855.6,286047002.6,N
1626101875.5,286047002.1,N
1626101895.3,286047001.5,N
1626101915.1,286047004.4,N
1626101935.9,286047004.2,N
1626101955.7,286047003.2,N
1626101975.5,286047001.4,N
1626101995.4,286047002.4,N
